This demonstration page uses our WeatherBlox Daily Observations layout. Learn more.

Left ArrowRight Arrow

38.20091, -84.87328

Hourly Observations for October 12, 2021

Temp ( °F °C ) Dew Point ( °F °C ) Humidity (%) Winds ( mph kmh ) Pressure ( in mb ) Visibility ( mi km ) Precip ( " mm )
12:53 am 00:53 Cloudy 73 22.8 62 16.7 69 69 S 15 24 29.88 1012 10 16 N/A
1:53 am 01:53 Mostly Cloudy 73 22.8 63 17.2 71 71 S 13 20 29.88 1012 10 16 N/A
2:53 am 02:53 Cloudy 72 22.2 63 17.2 73 73 SSW 14 22 29.88 1012 10 16 N/A
3:53 am 03:53 Cloudy 71 21.7 63 17.2 76 76 SSW 10 17 29.90 1013 10 16 N/A
4:53 am 04:53 Mostly Clear 69 20.6 63 17.2 81 81 S 7 11 29.91 1013 10 16 N/A
5:53 am 05:53 Mostly Clear 69 20.6 64 17.8 84 84 S 8 13 29.92 1013 10 16 N/A
6:53 am 06:53 Mostly Cloudy 69 20.6 65 18.3 87 87 SSW 15 24 29.94 1014 10 16 N/A
7:53 am 07:53 Sunny 68 20 65 18.3 90 90 SSW 10 17 29.95 1014 10 16 N/A
8:17 am 08:17 Mostly Cloudy 69 20.6 65 18.3 87 87 SSW 12 19 29.96 1015 10 16 N/A
8:39 am 08:39 Mostly Sunny 69 20.6 65 18.3 87 87 SSW 10 17 29.98 1015 10 16 N/A
8:53 am 08:53 Sunny 70 21.1 65 18.3 84 84 SSW 9 15 29.98 1015 10 16 N/A
9:33 am 09:33 Mostly Cloudy 71 21.7 66 18.9 84 84 SSW 10 17 29.99 1015 10 16 N/A
9:53 am 09:53 Mostly Cloudy 71 21.7 65 18.3 81 81 SSW 12 19 29.99 1016 10 16 N/A
10:01 am 10:01 Mostly Cloudy 72 22.2 65 18.3 79 79 SSW 10 17 29.98 1015 10 16 N/A
10:51 am 10:51 Partly Cloudy 73 23 64 18 74 74 SW 14 22 29.97 1015 10 16 N/A
10:53 am 10:53 Partly Cloudy 74 23.3 64 17.8 71 71 SW 16 26 29.97 1015 10 16 N/A
11:53 am 11:53 Mostly Cloudy 76 24.4 60 15.6 58 58 SW 17 28 29.98 1015 10 16 N/A
12:53 pm 12:53 Mostly Sunny 77 25 60 15.6 56 56 WSW 18 30 29.97 1015 10 16 N/A
1:53 pm 13:53 Sunny 79 26.1 58 14.4 49 49 WSW 12 19 29.96 1015 10 16 N/A
2:53 pm 14:53 Sunny 80 26.7 58 14.4 47 47 WSW 13 20 29.95 1014 10 16 N/A
3:53 pm 15:53 Mostly Sunny 79 26.1 58 14.4 49 49 SW 12 19 29.95 1014 10 16 N/A
4:53 pm 16:53 Sunny 78 25.6 58 14.4 50 50 SW 13 20 29.96 1014 10 16 N/A
5:53 pm 17:53 Sunny 76 24.4 59 15 56 56 W 8 13 29.97 1015 10 16 N/A
6:53 pm 18:53 Sunny 73 22.8 60 15.6 64 64 W 5 7 29.98 1015 10 16 N/A
7:53 pm 19:53 Clear 69 20.6 60 15.6 73 73 W 5 7 30.00 1016 10 16 N/A
8:53 pm 20:53 Clear 66 18.9 60 15.6 81 81 NW 5 7 30.02 1017 10 16 N/A
9:53 pm 21:53 Clear 63 17.2 59 15 87 87 NNW 5 7 30.03 1017 10 16 N/A
10:53 pm 22:53 Clear 61 16.1 58 14.4 90 90 N N/A 30.03 1017 10 16 N/A
11:53 pm 23:53 Clear 59 15 57 13.9 93 93 N N/A 30.03 1017 10 16 N/A

Powered by AerisWeather